DLH407 EPSN-EVRA

Flight info

Callsign DLH407
Flight time 1h 30m
Altitude 35000
Route AGODU L733 RANOK/K0824F350 L733 OTVOV/N0443F350 DCT ASKOR
Aircraft B38M/M-SDE1FGHILORVWXY/HB1

Departure

Time 2026-05-06 09:02
Airport Swidwin Military Air Base (EPSN)

Arrival

Time 2026-05-06 10:33
Airport Riga International Airport (EVRA)
Time Latitude Longitude Altitude Speed Heading
2026-05-06 08:53 53.79028 15.84047 405 ft 0 kts 21°
2026-05-06 08:57 53.79022 15.84043 406 ft 2 kts 21°
2026-05-06 08:57 53.79007 15.84028 406 ft 3 kts 43°
2026-05-06 08:57 53.78996 15.84001 406 ft 3 kts 66°
2026-05-06 08:58 53.78993 15.83982 406 ft 0 kts 78°
2026-05-06 08:59 53.78993 15.83986 406 ft 2 kts 78°
2026-05-06 08:59 53.78997 15.84027 406 ft 5 kts 81°
2026-05-06 08:59 53.78990 15.84093 406 ft 7 kts 110°
2026-05-06 08:59 53.78968 15.84193 406 ft 11 kts 110°
2026-05-06 09:00 53.78936 15.84336 406 ft 15 kts 110°
2026-05-06 09:00 53.78899 15.84496 406 ft 13 kts 120°
2026-05-06 09:00 53.78838 15.84511 406 ft 10 kts 202°
2026-05-06 09:00 53.78761 15.84454 406 ft 14 kts 207°
2026-05-06 09:01 53.78693 15.84376 406 ft 11 kts 230°
2026-05-06 09:01 53.78686 15.84299 406 ft 0 kts 290°
2026-05-06 09:01 53.78688 15.84293 406 ft 4 kts 290°
2026-05-06 09:01 53.78777 15.83903 406 ft 77 kts 290°
2026-05-06 09:02 53.79067 15.82602 407 ft 157 kts 291°
2026-05-06 09:02 53.79491 15.80682 1051 ft 180 kts 291°
2026-05-06 09:02 53.80012 15.78796 2151 ft 185 kts 303°
2026-05-06 09:02 53.81072 15.77378 2694 ft 205 kts 335°
2026-05-06 09:03 53.82488 15.77205 3458 ft 210 kts 13°
2026-05-06 09:03 53.83683 15.78599 4262 ft 217 kts 50°
2026-05-06 09:03 53.84173 15.81056 5082 ft 231 kts 84°
2026-05-06 09:03 53.84053 15.83802 5960 ft 244 kts 95°
2026-05-06 09:04 53.83893 15.86770 6740 ft 261 kts 90°
2026-05-06 09:04 53.84302 15.89809 7622 ft 270 kts 69°
2026-05-06 09:04 53.85253 15.92598 8570 ft 278 kts 55°
2026-05-06 09:04 53.86438 15.95232 9538 ft 284 kts 52°
2026-05-06 09:05 53.87686 15.97866 10468 ft 292 kts 53°
2026-05-06 09:05 53.89012 16.00609 11083 ft 309 kts 53°
2026-05-06 09:05 53.90420 16.03489 11700 ft 325 kts 52°
2026-05-06 09:05 53.91908 16.06515 12299 ft 341 kts 51°
2026-05-06 09:06 53.93458 16.09652 13023 ft 351 kts 49°
2026-05-06 09:06 53.94960 16.12892 13336 ft 355 kts 57°
2026-05-06 09:06 53.95966 16.16696 13399 ft 354 kts 73°
2026-05-06 09:06 53.96318 16.20803 13401 ft 352 kts 90°
2026-05-06 09:07 53.95995 16.24887 13401 ft 348 kts 107°
2026-05-06 09:07 53.95039 16.28633 13401 ft 344 kts 123°
2026-05-06 09:07 53.93550 16.31764 13400 ft 339 kts 139°
2026-05-06 09:07 53.91655 16.34087 13399 ft 335 kts 154°
2026-05-06 09:08 53.89500 16.35471 13395 ft 330 kts 169°
2026-05-06 09:08 53.87230 16.35878 13398 ft 326 kts 183°
2026-05-06 09:08 53.85004 16.35335 13398 ft 323 kts 197°
2026-05-06 09:08 53.82927 16.33934 13399 ft 321 kts 207°
2026-05-06 09:09 53.80937 16.32235 13391 ft 320 kts 209°
2026-05-06 09:09 53.79083 16.30164 13389 ft 319 kts 219°
2026-05-06 09:09 53.77394 16.27810 13387 ft 318 kts 221°
2026-05-06 09:09 53.75734 16.25326 13391 ft 318 kts 223°
2026-05-06 09:10 53.74119 16.22764 13392 ft 318 kts 225°
2026-05-06 09:10 53.72540 16.20157 13394 ft 318 kts 226°
2026-05-06 09:10 53.71204 16.17203 13396 ft 317 kts 240°
2026-05-06 09:10 53.70376 16.13745 13390 ft 318 kts 253°
2026-05-06 09:11 53.70068 16.10052 13390 ft 319 kts 266°
2026-05-06 09:11 53.70301 16.06324 13388 ft 322 kts 279°
2026-05-06 09:11 53.71075 16.02777 13387 ft 325 kts 294°
2026-05-06 09:11 53.72404 15.99676 13391 ft 329 kts 310°
2026-05-06 09:12 53.74231 15.97319 13392 ft 335 kts 326°
2026-05-06 09:12 53.76409 15.95873 13396 ft 339 kts 341°
2026-05-06 09:12 53.78746 15.95226 13393 ft 342 kts 352°
2026-05-06 09:12 53.81102 15.95341 13394 ft 345 kts
2026-05-06 09:13 53.83448 15.96254 13394 ft 348 kts 15°
2026-05-06 09:13 53.85673 15.97886 13398 ft 350 kts 24°
2026-05-06 09:13 53.87703 16.00173 13402 ft 352 kts 37°
2026-05-06 09:13 53.89527 16.02942 13398 ft 352 kts 42°
2026-05-06 09:14 53.91262 16.05878 13398 ft 353 kts 45°
2026-05-06 09:14 53.92936 16.08926 13399 ft 353 kts 47°
2026-05-06 09:14 53.94552 16.12053 13389 ft 353 kts 51°
2026-05-06 09:14 53.95752 16.15693 13403 ft 353 kts 68°
2026-05-06 09:15 53.96337 16.19735 13399 ft 352 kts 84°
2026-05-06 09:15 53.96260 16.23865 13397 ft 350 kts 101°
2026-05-06 09:15 53.95532 16.27781 13402 ft 346 kts 117°
2026-05-06 09:15 53.94233 16.31160 13400 ft 341 kts 133°
2026-05-06 09:16 53.92474 16.33801 13401 ft 336 kts 148°
2026-05-06 09:16 53.90401 16.35538 13399 ft 331 kts 163°
2026-05-06 09:16 53.88162 16.36318 13399 ft 327 kts 178°
2026-05-06 09:16 53.85903 16.36142 13398 ft 324 kts 191°
2026-05-06 09:17 53.83760 16.35058 13396 ft 321 kts 204°
2026-05-06 09:17 53.81777 16.33438 13392 ft 320 kts 208°
2026-05-06 09:17 53.79877 16.31494 13385 ft 318 kts 217°
2026-05-06 09:17 53.78157 16.29142 13383 ft 318 kts 221°
2026-05-06 09:18 53.76492 16.26677 13389 ft 318 kts 223°
2026-05-06 09:18 53.74869 16.24126 13392 ft 318 kts 224°
2026-05-06 09:18 53.73287 16.21521 13394 ft 317 kts 225°
2026-05-06 09:18 53.71769 16.18823 13375 ft 317 kts 232°
2026-05-06 09:19 53.70697 16.15575 13394 ft 317 kts 246°
2026-05-06 09:19 53.70165 16.11978 13387 ft 317 kts 259°
2026-05-06 09:19 53.70255 16.08217 13389 ft 327 kts 274°
2026-05-06 09:19 53.70919 16.04524 13385 ft 340 kts 288°
2026-05-06 09:20 53.72148 16.01050 13392 ft 351 kts 304°
2026-05-06 09:20 53.73921 15.98167 13391 ft 358 kts 321°
2026-05-06 09:20 53.76105 15.96149 13393 ft 360 kts 337°
2026-05-06 09:20 53.78524 15.95058 13398 ft 360 kts 351°
2026-05-06 09:21 53.81022 15.94891 13397 ft 359 kts
2026-05-06 09:21 53.83474 15.95677 13390 ft 357 kts 19°
2026-05-06 09:21 53.85745 15.97324 13391 ft 354 kts 32°
2026-05-06 09:21 53.87708 15.99778 13403 ft 349 kts 45°
2026-05-06 09:22 53.89470 16.02583 13396 ft 347 kts 49°
2026-05-06 09:22 53.91130 16.05481 13399 ft 346 kts 51°
2026-05-06 09:22 53.92752 16.08489 13397 ft 345 kts 53°
2026-05-06 09:22 53.94335 16.11544 13397 ft 344 kts 54°
2026-05-06 09:23 53.95556 16.14978 13399 ft 337 kts 71°
2026-05-06 09:23 53.96155 16.18774 13402 ft 331 kts 87°
2026-05-06 09:23 53.96110 16.22619 13427 ft 323 kts 103°
2026-05-06 09:23 53.95439 16.26224 13494 ft 319 kts 118°
2026-05-06 09:24 53.94222 16.29319 13500 ft 314 kts 133°
2026-05-06 09:24 53.92583 16.31722 13501 ft 311 kts 147°
2026-05-06 09:24 53.90643 16.33359 13499 ft 310 kts 160°
2026-05-06 09:24 53.88540 16.34141 13498 ft 310 kts 173°
2026-05-06 09:25 53.86391 16.34032 13495 ft 311 kts 186°
2026-05-06 09:25 53.84326 16.33086 13497 ft 312 kts 197°
2026-05-06 09:25 53.82323 16.31521 13497 ft 314 kts 204°
2026-05-06 09:25 53.80401 16.29865 13496 ft 315 kts 204°
2026-05-06 09:26 53.78565 16.27826 13498 ft 317 kts 213°
2026-05-06 09:26 53.76853 16.25465 13494 ft 318 kts 216°
2026-05-06 09:26 53.75178 16.23017 13494 ft 319 kts 216°
2026-05-06 09:26 53.73508 16.20546 13491 ft 319 kts 218°
2026-05-06 09:27 53.71962 16.17836 13478 ft 324 kts 229°
2026-05-06 09:27 53.70914 16.14432 13492 ft 330 kts 244°
2026-05-06 09:27 53.70419 16.10621 13490 ft 337 kts 259°
2026-05-06 09:27 53.70524 16.06640 13498 ft 343 kts 274°
2026-05-06 09:28 53.71253 16.02753 13782 ft 354 kts 291°
2026-05-06 09:28 53.72621 15.99310 14585 ft 362 kts 308°
2026-05-06 09:28 53.74557 15.96551 15437 ft 369 kts 325°
2026-05-06 09:28 53.76900 15.94724 16226 ft 374 kts 340°
2026-05-06 09:29 53.79470 15.93886 16944 ft 380 kts 355°
2026-05-06 09:29 53.82113 15.94120 17639 ft 383 kts 10°
2026-05-06 09:29 53.84660 15.95476 18285 ft 385 kts 26°
2026-05-06 09:29 53.86889 15.97960 18943 ft 383 kts 43°
2026-05-06 09:30 53.88810 16.01105 19597 ft 385 kts 49°
2026-05-06 09:30 53.90653 16.04422 20222 ft 389 kts 51°
2026-05-06 09:30 53.92488 16.07896 20529 ft 402 kts 51°
2026-05-06 09:30 53.94354 16.11524 20812 ft 414 kts 52°
2026-05-06 09:31 53.95958 16.15601 21271 ft 415 kts 63°
2026-05-06 09:31 53.97379 16.19818 21852 ft 419 kts 63°
2026-05-06 09:31 53.98849 16.24105 22552 ft 418 kts 62°
2026-05-06 09:31 54.00319 16.28349 23320 ft 415 kts 62°
2026-05-06 09:32 54.01779 16.32540 24127 ft 410 kts 62°
2026-05-06 09:32 54.03232 16.36712 24789 ft 409 kts 62°
2026-05-06 09:32 54.04684 16.40880 25318 ft 411 kts 62°
2026-05-06 09:32 54.06146 16.45084 25785 ft 414 kts 62°
2026-05-06 09:33 54.07619 16.49327 26252 ft 417 kts 62°
2026-05-06 09:33 54.09096 16.53588 26714 ft 419 kts 62°
2026-05-06 09:33 54.10584 16.57888 27147 ft 422 kts 62°
2026-05-06 09:33 54.12079 16.62219 27579 ft 424 kts 62°
2026-05-06 09:34 54.13580 16.66569 27983 ft 427 kts 62°
2026-05-06 09:34 54.15088 16.70952 28385 ft 430 kts 62°
2026-05-06 09:34 54.16587 16.75314 28775 ft 432 kts 62°
2026-05-06 09:34 54.18109 16.79754 29146 ft 435 kts 62°
2026-05-06 09:35 54.19642 16.84234 29515 ft 438 kts 62°
2026-05-06 09:35 54.21184 16.88745 29874 ft 441 kts 62°
2026-05-06 09:35 54.22734 16.93289 30217 ft 443 kts 62°
2026-05-06 09:35 54.24291 16.97864 30548 ft 446 kts 62°
2026-05-06 09:36 54.25329 17.00917 30753 ft 449 kts 62°
2026-05-06 09:36 54.26900 17.05547 31061 ft 452 kts 62°
2026-05-06 09:36 54.29001 17.11750 31465 ft 456 kts 62°
2026-05-06 09:36 54.30591 17.16459 31776 ft 459 kts 62°
2026-05-06 09:37 54.32193 17.21207 32067 ft 462 kts 63°
2026-05-06 09:37 54.33281 17.24439 32268 ft 464 kts 63°
2026-05-06 09:37 54.34896 17.29243 32565 ft 467 kts 63°
2026-05-06 09:37 54.36517 17.34072 32858 ft 469 kts 63°
2026-05-06 09:38 54.38132 17.38880 33145 ft 472 kts 62°
2026-05-06 09:38 54.39823 17.43730 33435 ft 475 kts 62°
2026-05-06 09:38 54.41547 17.48659 33717 ft 477 kts 62°
2026-05-06 09:38 54.43233 17.53504 34002 ft 480 kts 62°
2026-05-06 09:39 54.44945 17.58435 34289 ft 482 kts 62°
2026-05-06 09:39 54.46662 17.63389 34664 ft 481 kts 62°
2026-05-06 09:39 54.48377 17.68348 34831 ft 484 kts 62°
2026-05-06 09:40 54.51808 17.78305 34823 ft 483 kts 62°
2026-05-06 09:40 54.56941 17.93272 34822 ft 483 kts 62°
2026-05-06 09:41 54.60347 18.03255 34819 ft 484 kts 62°
2026-05-06 09:41 54.63761 18.13301 34818 ft 485 kts 62°
2026-05-06 09:42 54.67175 18.23390 34819 ft 486 kts 62°
2026-05-06 09:42 54.70581 18.33498 34820 ft 487 kts 62°
2026-05-06 09:43 54.73967 18.43587 34820 ft 488 kts 62°
2026-05-06 09:43 54.77369 18.53767 34831 ft 488 kts 62°
2026-05-06 09:44 54.80769 18.63984 34833 ft 489 kts 62°
2026-05-06 09:44 54.84161 18.74218 34837 ft 490 kts 62°
2026-05-06 09:45 54.87560 18.84514 34843 ft 491 kts 62°
2026-05-06 09:45 54.90967 18.94788 34840 ft 492 kts 59°
2026-05-06 09:46 54.94975 19.04370 34853 ft 493 kts 54°
2026-05-06 09:46 54.99089 19.13939 34858 ft 494 kts 54°
2026-05-06 09:47 55.03203 19.23534 34863 ft 494 kts 54°
2026-05-06 09:47 55.07310 19.33147 34867 ft 494 kts 54°
2026-05-06 09:48 55.11418 19.42799 34872 ft 495 kts 54°
2026-05-06 09:48 55.15495 19.52415 34876 ft 495 kts 54°
2026-05-06 09:49 55.19599 19.62132 34878 ft 496 kts 54°
2026-05-06 09:49 55.23691 19.71871 34882 ft 496 kts 54°
2026-05-06 09:50 55.27780 19.81639 34884 ft 497 kts 54°
2026-05-06 09:50 55.31865 19.91437 34887 ft 497 kts 54°
2026-05-06 09:51 55.35950 20.01274 34891 ft 498 kts 54°
2026-05-06 09:51 55.40033 20.11145 34896 ft 498 kts 54°
2026-05-06 09:52 55.44103 20.21024 34901 ft 498 kts 54°
2026-05-06 09:52 55.48166 20.30922 34905 ft 498 kts 54°
2026-05-06 09:53 55.52197 20.40779 34909 ft 498 kts 54°
2026-05-06 09:53 55.56246 20.50717 34915 ft 498 kts 54°
2026-05-06 09:54 55.60285 20.60672 34919 ft 498 kts 54°
2026-05-06 09:54 55.64279 20.70553 34844 ft 482 kts 54°
2026-05-06 09:55 55.66208 20.75341 34507 ft 475 kts 54°
2026-05-06 09:55 55.68120 20.80096 34015 ft 472 kts 54°
2026-05-06 09:55 55.70017 20.84822 33497 ft 470 kts 55°
2026-05-06 09:55 55.71903 20.89530 33008 ft 467 kts 55°
2026-05-06 09:56 55.73777 20.94218 32532 ft 464 kts 55°
2026-05-06 09:56 55.75633 20.98868 32056 ft 460 kts 55°
2026-05-06 09:56 55.77478 21.03499 31573 ft 457 kts 55°
2026-05-06 09:56 55.79309 21.08106 31086 ft 454 kts 55°
2026-05-06 09:57 55.81122 21.12676 30600 ft 451 kts 55°
2026-05-06 09:57 55.82928 21.17235 30111 ft 448 kts 56°
2026-05-06 09:57 55.84714 21.21752 29622 ft 445 kts 56°
2026-05-06 09:57 55.86491 21.26254 29130 ft 443 kts 56°
2026-05-06 09:58 55.88252 21.30724 28638 ft 440 kts 55°
2026-05-06 09:58 55.90002 21.35177 28145 ft 437 kts 55°
2026-05-06 09:58 55.91739 21.39602 27649 ft 434 kts 55°
2026-05-06 09:58 55.93466 21.44011 27152 ft 432 kts 55°
2026-05-06 09:59 55.95183 21.48403 26657 ft 429 kts 55°
2026-05-06 09:59 55.96865 21.52710 26169 ft 427 kts 55°
2026-05-06 09:59 55.98576 21.57102 25670 ft 425 kts 55°
2026-05-06 09:59 56.00240 21.61381 25182 ft 422 kts 55°
2026-05-06 10:00 56.01913 21.65687 24688 ft 420 kts 55°
2026-05-06 10:00 56.03571 21.69966 24197 ft 418 kts 55°
2026-05-06 10:00 56.05221 21.74232 23702 ft 416 kts 55°
2026-05-06 10:00 56.06859 21.78473 23209 ft 414 kts 55°
2026-05-06 10:01 56.08490 21.82703 22712 ft 412 kts 55°
2026-05-06 10:01 56.10112 21.86917 22213 ft 410 kts 55°
2026-05-06 10:01 56.11725 21.91115 21714 ft 408 kts 55°
2026-05-06 10:01 56.13328 21.95294 21213 ft 406 kts 55°
2026-05-06 10:02 56.14903 21.99405 20721 ft 404 kts 55°
2026-05-06 10:02 56.16488 22.03554 20219 ft 402 kts 55°
2026-05-06 10:02 56.18065 22.07685 19716 ft 400 kts 56°
2026-05-06 10:02 56.19636 22.11808 19212 ft 398 kts 56°
2026-05-06 10:03 56.21195 22.15905 18708 ft 396 kts 56°
2026-05-06 10:03 56.22741 22.19979 18204 ft 394 kts 56°
2026-05-06 10:03 56.24282 22.24043 17699 ft 392 kts 56°
2026-05-06 10:03 56.25815 22.28095 17193 ft 390 kts 56°
2026-05-06 10:04 56.27335 22.32116 16689 ft 388 kts 56°
2026-05-06 10:04 56.28848 22.36125 16183 ft 386 kts 56°
2026-05-06 10:04 56.30331 22.40063 15683 ft 384 kts 56°
2026-05-06 10:04 56.31825 22.44033 15177 ft 381 kts 56°
2026-05-06 10:05 56.33312 22.47991 14672 ft 379 kts 56°
2026-05-06 10:05 56.34781 22.51908 14174 ft 376 kts 56°
2026-05-06 10:05 56.36246 22.55817 13673 ft 374 kts 56°
2026-05-06 10:05 56.37693 22.59688 13174 ft 371 kts 56°
2026-05-06 10:06 56.38985 22.63661 12941 ft 359 kts 68°
2026-05-06 10:06 56.39469 22.67930 12949 ft 337 kts 89°
2026-05-06 10:06 56.39155 22.71980 12953 ft 319 kts 110°
2026-05-06 10:06 56.38157 22.75477 12954 ft 311 kts 130°
2026-05-06 10:07 56.36633 22.78076 12958 ft 302 kts 150°
2026-05-06 10:07 56.34749 22.79578 12957 ft 292 kts 170°
2026-05-06 10:07 56.32763 22.79841 12956 ft 283 kts 189°
2026-05-06 10:07 56.30886 22.78940 12951 ft 277 kts 206°
2026-05-06 10:08 56.29288 22.77073 12948 ft 273 kts 222°
2026-05-06 10:08 56.27973 22.74629 12960 ft 272 kts 229°
2026-05-06 10:08 56.26754 22.72015 12957 ft 271 kts 232°
2026-05-06 10:08 56.25605 22.69330 12952 ft 271 kts 234°
2026-05-06 10:09 56.24512 22.66622 12953 ft 271 kts 235°
2026-05-06 10:09 56.23419 22.63864 12949 ft 271 kts 235°
2026-05-06 10:09 56.22337 22.61095 12948 ft 271 kts 236°
2026-05-06 10:09 56.21265 22.58306 12943 ft 271 kts 236°
2026-05-06 10:10 56.20213 22.55495 12943 ft 271 kts 237°
2026-05-06 10:10 56.19452 22.52405 12947 ft 273 kts 253°
2026-05-06 10:10 56.19291 22.49014 12940 ft 276 kts 270°
2026-05-06 10:10 56.19745 22.45656 12942 ft 281 kts 287°
2026-05-06 10:11 56.20784 22.42647 12941 ft 288 kts 304°
2026-05-06 10:11 56.22328 22.40300 12941 ft 296 kts 322°
2026-05-06 10:11 56.24255 22.38881 12941 ft 304 kts 340°
2026-05-06 10:11 56.26384 22.38602 12940 ft 312 kts 359°
2026-05-06 10:12 56.28500 22.39597 12940 ft 319 kts 20°
2026-05-06 10:12 56.30324 22.41895 12941 ft 324 kts 42°
2026-05-06 10:12 56.31777 22.45000 12950 ft 325 kts 51°
2026-05-06 10:12 56.33132 22.48265 12971 ft 325 kts 53°
2026-05-06 10:13 56.34461 22.51565 13004 ft 325 kts 53°
2026-05-06 10:13 56.35782 22.54891 13008 ft 326 kts 54°
2026-05-06 10:13 56.37096 22.58237 13009 ft 326 kts 54°
2026-05-06 10:13 56.38409 22.61572 12990 ft 327 kts 52°
2026-05-06 10:14 56.39947 22.64575 12756 ft 325 kts 44°
2026-05-06 10:14 56.41526 22.67484 12550 ft 323 kts 44°
2026-05-06 10:14 56.43084 22.70389 12438 ft 321 kts 44°
2026-05-06 10:14 56.44615 22.73269 12389 ft 322 kts 44°
2026-05-06 10:15 56.46165 22.76198 12338 ft 322 kts 45°
2026-05-06 10:15 56.47707 22.79124 12292 ft 322 kts 45°
2026-05-06 10:15 56.49253 22.82060 12242 ft 322 kts 45°
2026-05-06 10:15 56.50798 22.85001 12197 ft 322 kts 45°
2026-05-06 10:16 56.52336 22.87931 12149 ft 321 kts 44°
2026-05-06 10:16 56.53871 22.90866 12120 ft 320 kts 45°
2026-05-06 10:16 56.55398 22.93785 12029 ft 314 kts 45°
2026-05-06 10:16 56.56887 22.96618 11975 ft 307 kts 44°
2026-05-06 10:17 56.58390 22.99409 11649 ft 309 kts 44°
2026-05-06 10:17 56.59897 23.02196 11218 ft 309 kts 44°
2026-05-06 10:17 56.61390 23.04975 10787 ft 307 kts 44°
2026-05-06 10:17 56.62868 23.07727 10361 ft 301 kts 44°
2026-05-06 10:18 56.64313 23.10422 9947 ft 294 kts 45°
2026-05-06 10:18 56.65710 23.13029 9563 ft 289 kts 45°
2026-05-06 10:18 56.67098 23.15619 9147 ft 283 kts 45°
2026-05-06 10:18 56.68455 23.18160 8764 ft 276 kts 45°
2026-05-06 10:19 56.69774 23.20629 8391 ft 269 kts 45°
2026-05-06 10:19 56.71075 23.23070 8034 ft 268 kts 46°
2026-05-06 10:19 56.72339 23.25524 7650 ft 266 kts 50°
2026-05-06 10:19 56.73428 23.28275 7256 ft 265 kts 54°
2026-05-06 10:20 56.74495 23.31000 6893 ft 263 kts 53°
2026-05-06 10:20 56.75562 23.33697 6537 ft 261 kts 53°
2026-05-06 10:20 56.76621 23.36356 6182 ft 258 kts 53°
2026-05-06 10:20 56.77671 23.38985 5832 ft 255 kts 53°
2026-05-06 10:21 56.78713 23.41589 5484 ft 253 kts 54°
2026-05-06 10:21 56.79744 23.44159 5138 ft 250 kts 54°
2026-05-06 10:21 56.80767 23.46714 4794 ft 248 kts 54°
2026-05-06 10:21 56.81779 23.49241 4454 ft 245 kts 54°
2026-05-06 10:22 56.82443 23.50900 4230 ft 243 kts 54°
2026-05-06 10:22 56.83433 23.54526 3851 ft 240 kts 76°
2026-05-06 10:22 56.83507 23.57516 3792 ft 239 kts 89°
2026-05-06 10:22 56.83417 23.60520 3685 ft 231 kts 92°
2026-05-06 10:23 56.83335 23.62475 3595 ft 224 kts 93°
2026-05-06 10:23 56.83203 23.65195 3546 ft 211 kts 94°
2026-05-06 10:23 56.83064 23.67858 3519 ft 210 kts 94°
2026-05-06 10:23 56.82919 23.70480 3366 ft 205 kts 94°
2026-05-06 10:24 56.82773 23.73047 3237 ft 201 kts 94°
2026-05-06 10:24 56.82583 23.75515 3071 ft 193 kts 100°
2026-05-06 10:24 56.81906 23.77573 2906 ft 185 kts 124°
2026-05-06 10:24 56.81050 23.79198 2853 ft 172 kts 131°
2026-05-06 10:25 56.80189 23.80681 2818 ft 170 kts 133°
2026-05-06 10:25 56.79295 23.82173 2841 ft 178 kts 134°
2026-05-06 10:25 56.78357 23.83703 2867 ft 183 kts 134°
2026-05-06 10:25 56.77400 23.85244 2868 ft 184 kts 135°
2026-05-06 10:26 56.76393 23.86637 2855 ft 186 kts 143°
2026-05-06 10:26 56.75242 23.87697 2939 ft 185 kts 150°
2026-05-06 10:26 56.74064 23.88691 3003 ft 187 kts 150°
2026-05-06 10:26 56.73018 23.89990 3027 ft 174 kts 140°
2026-05-06 10:27 56.72054 23.91168 2966 ft 163 kts 144°
2026-05-06 10:27 56.71195 23.92455 2888 ft 162 kts 127°
2026-05-06 10:27 56.71008 23.94393 2751 ft 158 kts 82°
2026-05-06 10:27 56.71747 23.95768 2763 ft 160 kts 29°
2026-05-06 10:28 56.72841 23.95878 3170 ft 157 kts
2026-05-06 10:28 56.73951 23.95822 3330 ft 161 kts
2026-05-06 10:28 56.75073 23.95771 3128 ft 161 kts
2026-05-06 10:28 56.76179 23.95704 2906 ft 155 kts
2026-05-06 10:29 56.77204 23.95641 2702 ft 143 kts
2026-05-06 10:29 56.78184 23.95575 2458 ft 137 kts
2026-05-06 10:29 56.79116 23.95503 2274 ft 136 kts
2026-05-06 10:29 56.80056 23.95319 2098 ft 136 kts 359°
2026-05-06 10:30 56.80998 23.95308 1927 ft 135 kts
2026-05-06 10:30 56.81936 23.95408 1755 ft 134 kts
2026-05-06 10:30 56.82865 23.95555 1573 ft 133 kts
2026-05-06 10:30 56.83786 23.95711 1407 ft 132 kts
2026-05-06 10:31 56.84694 23.95859 1221 ft 130 kts
2026-05-06 10:31 56.85596 23.96006 1054 ft 130 kts
2026-05-06 10:31 56.86498 23.96155 878 ft 130 kts
2026-05-06 10:31 56.87396 23.96302 707 ft 129 kts
2026-05-06 10:32 56.88292 23.96450 536 ft 129 kts
2026-05-06 10:32 56.89185 23.96596 370 ft 129 kts
2026-05-06 10:32 56.90068 23.96741 194 ft 128 kts
2026-05-06 10:32 56.90953 23.96889 55 ft 123 kts
2026-05-06 10:33 56.91576 23.96999 46 ft 40 kts
2026-05-06 10:33 56.91707 23.97083 46 ft 8 kts 68°
2026-05-06 10:33 56.91713 23.97187 46 ft 10 kts 94°
2026-05-06 10:33 56.91710 23.97340 46 ft 13 kts 70°
2026-05-06 10:34 56.91789 23.97420 46 ft 15 kts
2026-05-06 10:34 56.91909 23.97438 46 ft 19 kts
2026-05-06 10:34 56.92058 23.97452 46 ft 23 kts
2026-05-06 10:34 56.92231 23.97482 46 ft 27 kts
2026-05-06 10:35 56.92370 23.97513 46 ft 12 kts 30°
2026-05-06 10:35 56.92390 23.97608 46 ft 8 kts 95°
2026-05-06 10:35 56.92406 23.97710 46 ft 8 kts 32°
2026-05-06 10:35 56.92415 23.97715 46 ft 2 kts
2026-05-06 10:36 56.92438 23.97719 46 ft 0 kts